Regional Weather Roundup
Issued by NWS

Home | Current Version | Previous Version | Graphics & Text | Print | Product List | Glossary On
Versions: 1 2 3 4 5 6 7 8 9 10 11 12 13 14 15 16 17 18 19 20 21 22 23 24 25 26 27 28 29 30 31 32 33 34 35 36 37 38 39 40 41 42 43 44 45 46 47 48 49 50
000
ASUS45 KBOI 061210
RWRID

IDAHO REGIONAL WEATHER ROUNDUP
NATIONAL WEATHER SERVICE BOISE ID
600 AM MDT MON JUL 06 2015

NOTE: "FAIR" INDICATES FEW OR NO CLOUDS BELOW 12000 FEET
WITH NO SIGNIFICANT WEATHER AND/OR OBSTRUCTIONS TO VISIBILITY

IDZ012-014-061300-
SOUTHWEST IDAHO


CITY           SKY/WX    TMP DP  RH WIND       PRES   REMARKS
BOISE          MOCLDY    69  54  58 SE3       30.01S
CALDWELL       MOCLDY    63  48  59 E5        30.01R
MOUNTAIN HOME  CLOUDY    68  48  49 NW3       30.02R
$$

IDZ016-017-061300-
SOUTHCENTRAL IDAHO


CITY           SKY/WX    TMP DP  RH WIND       PRES   REMARKS
BURLEY         PTCLDY    60  54  80 NE5       30.10R
JEROME         MOCLDY    65  53  65 SE6       30.10R
TWIN FALLS     MOCLDY    68  51  54 S10       30.07R
$$

IDZ019>023-061300-
SOUTHEAST IDAHO


CITY           SKY/WX    TMP DP  RH WIND       PRES   REMARKS
IDAHO FALLS    CLOUDY    59  55  87 N9        30.16R
POCATELLO      MOCLDY    66  54  65 SW7       30.13R
REXBURG        MOCLDY    57  53  86 NE8       30.17S
$$

IDZ006-010-011-018-031-032-061300-
CENTRAL IDAHO MOUNTAINS


CITY           SKY/WX    TMP DP  RH WIND       PRES   REMARKS
MCCALL         CLEAR     53  48  83 CALM      30.14R
HAILEY         CLOUDY    59  45  58 NW8       30.20R
STANLEY          N/A     44  39  82 SE3       30.28R
SALMON         CLEAR     57  48  72 N8        30.15R
CHALLIS        PTCLDY    59  41  51 CALM      30.17R
$$

IDZ002-004-006-007-026-061300-
NORTHERN IDAHO


CITY           SKY/WX    TMP DP  RH WIND       PRES   REMARKS
LEWISTON       CLEAR     66  50  56 S5        29.98R
LOWELL           N/A     63  54  72 CALM      30.02R
COEUR D`ALENE  CLEAR     59  43  55 NE14      30.07S
MULLAN PASS    CLEAR     47  42  83 SE13G23   30.22S
$$


USA.gov is the U.S. government's official web portal to all federal, state and local government web resources and services.